Regional Weather Roundup
Issued by NWS Austin/San Antonio, TX

Home | Current Version | Previous Version | Text Only | Print | Product List | Glossary On
Versions: 1 2 3 4 5 6 7 8 9 10 11 12 13 14 15 16 17 18 19 20 21 22 23 24 25 26 27 28 29 30 31 32 33 34 35 36 37 38 39 40 41 42 43 44 45 46 47 48 49 50
595
ASUS44 KEWX 272010
RWREWX
SOUTH TEXAS REGIONAL WEATHER ROUNDUP
NATIONAL WEATHER SERVICE AUSTIN/SAN ANTONIO TX
300 PM CDT SUN MAY 27 2018

NOTE: "FAIR" INDICATED FEW OR NO CLOUDS BELOW 12,000 FEET WITH NO
SIGNIFICANT WEATHER AND/OR OBSTRUCTIONS TO VISIBILITY.

* - THESE STATIONS ARE NOT NWS OR FAA STATIONS...AND ARE NOT SUBJECT
    TO NWS AND FAA QUALITY CONTROL.

TXZ171-172-183>190-272100-
TEXAS HILL COUNTRY AND EDWARDS PLATEAU

CITY           SKY/WX    TMP DP  RH WIND       PRES   REMARKS
JUNCTION       SUNNY     98  60  28 SE10      29.81F HX  98
*LLANO         SUNNY     99  63  30 E10G18    29.83F HX 100
BURNET         SUNNY     95  64  35 SE7       29.85F HX  97
*HORSESHOE BAY SUNNY     98  61  29 S3G16     29.81F HX  98
*KERRVILLE     SUNNY     94  66  39 SE9       29.85F HX  96
*FREDERICKSBRG SUNNY     94  61  33 S7        29.85F HX  93
*ROCKSPRINGS   SUNNY     95  57  28 S13G22    29.90F HX  94
*BOERNE STAGE  SUNNY     91  61  35 S7        29.85F HX  91
*CASTROVILLE   SUNNY     94  62  34 E6        29.82F HX  94
HONDO          SUNNY     95  71  45 SE14      29.81F HX 102
*UVALDE        SUNNY     97  69  40 SE9G16    29.79F HX 102
DEL RIO        SUNNY    104  59  22 SE18G24   29.72F HX 104
LAUGHLIN AFB   MOSUNNY  103  57  21 SE15G21   29.74F HX 102
CARRIZO SPRGS  SUNNY    100  61  27 E3        29.74F HX 101
*EAGLE PASS    CLEAR    106  55  18 S10G18    29.75F HX 105
*FAITH RANCH   SUNNY    104  55  20 E10G18    29.75F HX 103
$$

TXZ173-191>194-202-209-217>225-228-272100-
CENTRAL AND SOUTH CENTRAL TEXAS

CITY           SKY/WX    TMP DP  RH WIND       PRES   REMARKS
GEORGETOWN     SUNNY     94  67  41 S9        29.83F HX  97
AUSTIN/BERGSTM MOSUNNY   96  69  41 E10       29.80F HX 102
AUSTIN/MABRY   SUNNY     96  66  37 VRB7      29.82F HX  99
*AUSTIN/EXEC   SUNNY     91  70  49 MISG      29.82F HX  97
*LAGO VISTA    SUNNY     95  63  34 SE7       29.84F HX  96
SAN MARCOS     SUNNY     96  68  39 S8        29.81F HX 101
NEW BRAUNFELS  SUNNY     94  68  42 E6        29.80F HX  98
RANDOLPH AFB   MOSUNNY   93  67  42 SE10      29.81F HX  96
PT SAN ANTONIO SUNNY     96  64  34 E8G17     29.79F HX  97
SAN ANTONIO    MOSUNNY   95  63  34 SE12      29.81F HX  96
STINSON FIELD  SUNNY     98  66  34 SE6       29.78F HX 101
*LA GRANGE     SUNNY     94  71  45 E5        29.79F HX 101
*GIDDINGS      SUNNY     92  68  45 SW5       29.82F HX  96
*GONZALES      SUNNY     95  70  43 S8        29.79F HX 101
$$

TXZ163>164-176>182-195>201-210>213-226-227-235-272100-
SOUTHEAST TEXAS

CITY           SKY/WX    TMP DP  RH WIND       PRES   REMARKS
COLLEGE STN    PTSUNNY   91  70  49 CALM      29.81F HX  96
*BRYAN         SUNNY     91  72  52 SE6       29.83F HX  98
*CALDWELL      MOSUNNY   92  68  44 E5        29.82F HX  96
*CROCKETT      PTSUNNY   90  73  58 S5        29.83F HX  98
*BRENHAM       SUNNY     92  70  47 NE3       29.82F HX  98
HUNTSVILLE     PTSUNNY   91  71  51 SE3       29.81F HX  97
CONROE         LGT RAIN  79  72  79 SE10G23   29.82F
HOUSTON BUSH   PTSUNNY   91  73  55 E8        29.80F HX  99
HOUSTON HOBBY  PTSUNNY   90  73  57 NE7       29.79F HX  98
*HOUSTON SW AP   N/A     90  73  56 SE5       29.81F HX  98
PEARLAND       CLOUDY    91  72  53 VRB5      29.81F HX  98
HOUSTON HOOKS  FAIR      91  72  53 VRB3      29.80F HX  98
ELLINGTON FLD  PTSUNNY   93  73  52 NE3       29.82F HX 102
SUGAR LAND     PTSUNNY   92  72  51 S7        29.80F HX  99
*HOUSTON EXEC    N/A     93  73  52 VRB5      29.82F HX 102
*CLEVELAND MUN LGT RAIN  85  72  64 CALM      29.83F HX  92
*WHARTON       SUNNY     91  67  45 S5        29.81F HX  94
*COLUMBUS      FAIR      92  68  45 E7        29.81F HX  96
*EAGLE LAKE    CLEAR     92  72  50 E6        29.80F HX 100
$$

TXZ214>216-236>238-272100-
THE UPPER TEXAS COAST

CITY           SKY/WX    TMP DP  RH WIND       PRES   REMARKS
*ORANGE        HVY RAIN  81  74  80 E7G16     29.84S
PORT ARTHUR    LGT RAIN  79  73  82 SE9       29.82S
GALVESTON      FAIR      86  75  69 S13       29.82F HX  95
ANGLETON       FAIR      91  73  55 S12       29.80F HX  99
*BAY CITY      PTSUNNY   91  75  59 SW6       29.80F HX 101
PALACIOS       SUNNY     88  75  65 S10       29.81F HX  97
$$

TXZ229>234-239>247-272100-
TEXAS COASTAL BEND AND RIO GRANDE PLAINS

CITY           SKY/WX    TMP DP  RH WIND       PRES   REMARKS
VICTORIA       MOSUNNY   95  68  41 SE7G17    29.79F HX  99
*BEEVILLE      MOSUNNY   96  66  37 CALM      29.79F HX  98
ROCKPORT       SUNNY     88  73  61 SE12      29.80F HX  95
*PORT ARANSAS    N/A    N/A N/A N/A MISG        N/A
*PORT LAVACA   MOSUNNY   89  74  61 SE12      29.81S HX  97
*INGLESIDE     MOSUNNY   91  73  55 S9G18     29.81S HX  99
CORPUS CHRISTI MOSUNNY   93  72  50 SE10      29.79F HX 101
CORPUS NAS     SUNNY     90  76  63 SE14      29.80F HX 101
*ROBSTOWN      SUNNY     92  70  48 SE6       29.79F HX  98
ALICE          SUNNY     96  66  37 SE12G18   29.77F HX  99
KINGSVILLE NAS MOSUNNY   98  68  37 SE9       29.77F HX 103
COTULLA        SUNNY     99  62  29 S8G17     29.76F HX 100
LAREDO         SUNNY    103  60  24 E7        29.74F HX 104
$$

TXZ248>255-272100-
DEEP SOUTH TEXAS

CITY           SKY/WX    TMP DP  RH WIND       PRES   REMARKS
BROWNSVILLE    FAIR      96  69  41 SE8       29.78F HX 102
PORT ISABEL    FAIR      93  71  48 E20       29.77F HX 100
*SOUTH PADRE   NOT AVBL
HARLINGEN      MOSUNNY   97  66  36 SE6       29.75F HX 100
*HEBBRONVILLE  SUNNY     98  57  25 E10G17    29.78F HX  96
MCALLEN        SUNNY    100  68  35 E8        29.76F HX 105
*WESLACO       NOT AVBL
FALFURRIAS     SUNNY    100  61  28 S5        29.76S HX 100
EDINBURG         N/A     99  62  29 E9        29.76F HX 100
*ZAPATA        NOT AVBL
$$

TXZ213>215-236>238-242>244-246-247-251-254-255-272100-
CMAN STATIONS

STATION/POSITION TIME  TEMP    WIND        PRES    WAVE
                       AIR SEA DIR/SP/G            HT/PER
                 (UTC) (F)     (DEG/KT/KT) (MB)    (FT/S)
SABINE PASS      1948   77 87  210/  3/  6 1011.7
SEA RIM ST PARK  2000   81     140/  9/ 10 1010.4
NORTH JETTY/GLS  1936   82 85  170/ 10/ 11 1009.3
EAGLE POINT      1948   85 89  140/  5/  8 1009.5
MORGANS POINT    1948   88 85   CALM  /  3 1009.4
PORT O`CONNOR    1948   82 86  180/ 10/ 11 1009.4
PORT ARANSAS     2000   81 86  130/  8/  9 1009.5
MALAQUITE BEACH  1948   81 85  120/ 10/ 11 1009.1
BAFFIN BAY       1948   83 89   90/ 11/ 14 1009.4
PORT ISABEL      1948   84 85  130/ 14/ 17 1009.0
$$




USA.gov is the U.S. government's official web portal to all federal, state and local government web resources and services.